Creston, IA

12:21 PM CST on December 12, 2017 (GMT -0600)
Creston Municipal

Weather History for KCSQ - March, 2012

Change the Weather History Date:

Saturday, March 17, 2012

  Actual Average Record
Temperature  
Mean Temperature 69 °F -  
Max Temperature 78 °F 47 °F 78 °F (2012)
Min Temperature 60 °F 28 °F 8 °F (1960)
Cooling Degree Days 4    
Growing Degree Days 19 (Base 50)    
Moisture  
Dew Point 59 °F    
Average Humidity 73    
Maximum Humidity 88    
Minimum Humidity 50    
Precipitation  
Precipitation 0.00 in - - ()
Sea Level Pressure  
Sea Level Pressure 29.87 in    
Wind  
Wind Speed 16 mph (South)    
Max Wind Speed 26 mph    
Max Gust Speed 32 mph    
Visibility 10 miles    
Events      
Averages and records for this station are not official NWS values.
T = Trace of Precipitation, MM = Missing Value Source: NWS Daily Summary

Daily Weather History Graph

Daily Weather History Graph

Search for Another Location

Airport or City:

Trip Planner

Search our weather history database for the weather conditions in past years. The results will help you decide how hot, cold, wet, or windy it might be!

Date:

Astronomy

Mar. 17, 2012 Rise Set
Actual Time 7:24 AM CDT 7:26 PM CDT
Civil Twilight 6:57 AM CDT 7:54 PM CDT
Nautical Twilight 6:25 AM CDT 8:26 PM CDT
Astronomical Twilight 5:53 AM CDT 8:58 PM CDT
Moon 4:29 AM CDT (3/17) 2:49 PM CDT (3/17)
Length of Visible Light 12h 56m
Length of Day
12h 01m
Waning Crescent, 23% of the Moon is Illuminated
Mar 17
Waning Crescent
Mar 22
New
Mar 30
First Quarter
Apr 6
Full
Apr 13
Last Quarter

Hourly Weather History & Observations

Time (CDT) Temp. Dew Point Humidity Pressure Visibility Wind Dir Wind Speed Gust Speed Precip Events Conditions
12:15 AM 66.2 °F 60.8 °F 83% 29.91 in 10.0 mi South 16.1 mph - N/A   Scattered Clouds
12:35 AM 66.2 °F 60.8 °F 83% 29.91 in 10.0 mi South 16.1 mph - N/A   Mostly Cloudy
12:55 AM 66.2 °F 60.8 °F 83% 29.91 in 10.0 mi South 13.8 mph - N/A   Mostly Cloudy
1:15 AM 66.2 °F 60.8 °F 83% 29.90 in 10.0 mi South 16.1 mph 20.7 mph N/A   Scattered Clouds
1:35 AM 64.4 °F 60.8 °F 88% 29.90 in 10.0 mi South 15.0 mph - N/A   Clear
1:55 AM 64.4 °F 60.8 °F 88% 29.90 in 10.0 mi South 16.1 mph - N/A   Clear
2:15 AM 64.4 °F 60.8 °F 88% 29.90 in 10.0 mi South 17.3 mph - N/A   Clear
2:35 AM 64.4 °F 59.0 °F 83% 29.90 in 10.0 mi South 12.7 mph - N/A   Clear
2:55 AM 64.4 °F 59.0 °F 83% 29.90 in 10.0 mi South 15.0 mph - N/A   Clear
3:15 AM 64.4 °F 59.0 °F 83% 29.90 in 10.0 mi South 12.7 mph - N/A   Clear
3:35 AM 62.6 °F 59.0 °F 88% 29.89 in 10.0 mi South 11.5 mph - N/A   Clear
3:55 AM 62.6 °F 59.0 °F 88% 29.89 in 10.0 mi South 12.7 mph - N/A   Clear
4:15 AM 62.6 °F 57.2 °F 82% 29.88 in 10.0 mi South 12.7 mph - N/A   Clear
4:35 AM 62.6 °F 57.2 °F 82% 29.88 in 10.0 mi South 12.7 mph - N/A   Clear
4:55 AM 60.8 °F 57.2 °F 88% 29.88 in 10.0 mi South 10.4 mph - N/A   Clear
5:15 AM 62.6 °F 57.2 °F 82% 29.88 in 10.0 mi South 10.4 mph - N/A   Clear
5:35 AM 62.6 °F 57.2 °F 82% 29.88 in 10.0 mi SSE 10.4 mph - N/A   Clear
5:55 AM 62.6 °F 57.2 °F 82% 29.89 in 10.0 mi SSE 11.5 mph - N/A   Clear
6:15 AM 62.6 °F 57.2 °F 82% 29.89 in 10.0 mi SSE 11.5 mph - N/A   Clear
6:35 AM 60.8 °F 57.2 °F 88% 29.89 in 10.0 mi SSE 11.5 mph - N/A   Scattered Clouds
6:55 AM 60.8 °F 57.2 °F 88% 29.89 in 10.0 mi SSE 9.2 mph - N/A   Scattered Clouds
7:15 AM 62.6 °F 57.2 °F 82% 29.89 in 10.0 mi SSE 12.7 mph - N/A   Mostly Cloudy
7:35 AM 62.6 °F 57.2 °F 82% 29.89 in 10.0 mi SSE 11.5 mph - N/A   Mostly Cloudy
7:55 AM 62.6 °F 57.2 °F 82% 29.89 in 10.0 mi SSE 12.7 mph - N/A   Scattered Clouds
8:15 AM 62.6 °F 57.2 °F 82% 29.89 in 10.0 mi SSE 11.5 mph - N/A   Mostly Cloudy
8:35 AM 62.6 °F 57.2 °F 82% 29.89 in 10.0 mi SSE 13.8 mph - N/A   Scattered Clouds
8:55 AM 64.4 °F 57.2 °F 77% 29.89 in 10.0 mi SSE 15.0 mph 20.7 mph N/A   Clear
9:15 AM 64.4 °F 59.0 °F 83% 29.89 in 10.0 mi South 18.4 mph 23.0 mph N/A   Clear
9:35 AM 66.2 °F 60.8 °F 83% 29.89 in 10.0 mi South 18.4 mph - N/A   Clear
9:55 AM 68.0 °F 60.8 °F 78% 29.89 in 10.0 mi South 20.7 mph 24.2 mph N/A   Clear
10:15 AM 69.8 °F 60.8 °F 73% 29.89 in 10.0 mi South 25.3 mph 29.9 mph N/A   Scattered Clouds
10:35 AM 68.0 °F 60.8 °F 78% 29.90 in 10.0 mi South 23.0 mph 29.9 mph N/A   Mostly Cloudy
10:55 AM 69.8 °F 60.8 °F 73% 29.90 in 10.0 mi South 24.2 mph 28.8 mph N/A   Overcast
11:15 AM 69.8 °F 60.8 °F 73% 29.90 in 10.0 mi South 18.4 mph 28.8 mph N/A   Overcast
11:35 AM 69.8 °F 60.8 °F 73% 29.90 in 10.0 mi South 18.4 mph 25.3 mph N/A   Overcast
11:55 AM 71.6 °F 60.8 °F 69% 29.89 in 10.0 mi South 21.9 mph 26.5 mph N/A   Overcast
12:15 PM 71.6 °F 60.8 °F 69% 29.88 in 10.0 mi South 21.9 mph 32.2 mph N/A   Mostly Cloudy
12:35 PM 73.4 °F 60.8 °F 65% 29.87 in 10.0 mi South 24.2 mph 29.9 mph N/A   Mostly Cloudy
12:55 PM 73.4 °F 60.8 °F 65% 29.86 in 10.0 mi South 25.3 mph 29.9 mph N/A   Mostly Cloudy
1:15 PM 73.4 °F 59.0 °F 61% 29.86 in 10.0 mi South 24.2 mph 29.9 mph N/A   Scattered Clouds
1:35 PM 77.0 °F 60.8 °F 57% 29.85 in 10.0 mi South 23.0 mph 29.9 mph N/A   Clear
1:55 PM 75.2 °F 60.8 °F 61% 29.85 in 10.0 mi South 25.3 mph 31.1 mph N/A   Scattered Clouds
2:15 PM 75.2 °F 59.0 °F 57% 29.85 in 10.0 mi South 24.2 mph 32.2 mph N/A   Scattered Clouds
2:35 PM 75.2 °F 59.0 °F 57% 29.84 in 10.0 mi South 21.9 mph 28.8 mph N/A   Scattered Clouds
2:55 PM 75.2 °F 59.0 °F 57% 29.83 in 10.0 mi South 26.5 mph 29.9 mph N/A   Clear
3:15 PM 75.2 °F 59.0 °F 57% 29.82 in 10.0 mi SSE 21.9 mph 29.9 mph N/A   Clear
3:35 PM 77.0 °F 57.2 °F 50% 29.82 in 10.0 mi SSE 20.7 mph 29.9 mph N/A   Clear
3:55 PM 77.0 °F 59.0 °F 54% 29.81 in 10.0 mi South 20.7 mph 28.8 mph N/A   Scattered Clouds
4:15 PM 78.8 °F 59.0 °F 51% 29.81 in 10.0 mi South 24.2 mph 29.9 mph N/A   Scattered Clouds
4:35 PM 77.0 °F 60.8 °F 57% 29.81 in 10.0 mi South 19.6 mph 31.1 mph N/A   Clear
4:55 PM 78.8 °F 60.8 °F 54% 29.80 in 10.0 mi South 21.9 mph 28.8 mph N/A   Clear
5:15 PM 77.0 °F 60.8 °F 57% 29.80 in 10.0 mi South 19.6 mph 25.3 mph N/A   Clear
5:35 PM 75.2 °F 60.8 °F 61% 29.80 in 10.0 mi SSE 18.4 mph 26.5 mph N/A   Scattered Clouds
5:55 PM 77.0 °F 60.8 °F 57% 29.80 in 10.0 mi South 21.9 mph 27.6 mph N/A   Mostly Cloudy
6:15 PM 75.2 °F 59.0 °F 57% 29.81 in 10.0 mi South 24.2 mph 31.1 mph N/A   Scattered Clouds
6:35 PM 75.2 °F 57.2 °F 53% 29.81 in 10.0 mi South 21.9 mph 31.1 mph N/A   Clear
6:55 PM 73.4 °F 57.2 °F 57% 29.82 in 10.0 mi South 16.1 mph 29.9 mph N/A   Clear
7:15 PM 71.6 °F 57.2 °F 60% 29.82 in 10.0 mi South 17.3 mph - N/A   Clear
7:35 PM 71.6 °F 57.2 °F 60% 29.82 in 10.0 mi South 16.1 mph 21.9 mph N/A   Clear
7:55 PM 69.8 °F 57.2 °F 64% 29.83 in 10.0 mi South 17.3 mph - N/A   Clear
8:15 PM 69.8 °F 57.2 °F 64% 29.83 in 10.0 mi South 12.7 mph - N/A   Clear
8:35 PM 69.8 °F 59.0 °F 68% 29.84 in 10.0 mi South 15.0 mph 20.7 mph N/A   Clear
8:55 PM 68.0 °F 59.0 °F 73% 29.84 in 10.0 mi SSE 11.5 mph - N/A   Clear
9:15 PM 68.0 °F 60.8 °F 78% 29.85 in 10.0 mi South 15.0 mph - N/A   Clear
9:35 PM 68.0 °F 60.8 °F 78% 29.85 in 10.0 mi South 16.1 mph 23.0 mph N/A   Clear
9:55 PM 68.0 °F 60.8 °F 78% 29.86 in 10.0 mi South 16.1 mph 23.0 mph N/A   Clear
10:15 PM 66.2 °F 60.8 °F 83% 29.86 in 10.0 mi South 16.1 mph 20.7 mph N/A   Clear
10:35 PM 66.2 °F 60.8 °F 83% 29.86 in 10.0 mi South 16.1 mph - N/A   Clear
11:15 PM 66.2 °F 59.0 °F 78% 29.86 in 10.0 mi South 17.3 mph - N/A   Clear
11:35 PM 64.4 °F 59.0 °F 83% 29.86 in 10.0 mi South 15.0 mph - N/A   Scattered Clouds
11:55 PM 64.4 °F 59.0 °F 83% 29.86 in 10.0 mi South 16.1 mph - N/A   Scattered Clouds